FW0392 Weather Reports


time (UTC)temp
C
wind
direction
speed
KPH
gust
KPH
rain 1hr
cm
rain 24hr
cm
rain mn
cm
humidity
%
barometer
mb
20260507113050 20 35 0.0 14.5 0.00 0.15 0.15 62 1012.6
20260507111555 21 78 0.0 6.4 0.00 0.15 0.15 60 1012.6
20260507110049 21 19 0.0 4.8 0.00 0.15 0.15 64 1012.7
20260507104548 21 308 0.0 4.8 0.00 0.15 0.15 61 1012.7
20260507103044 21 21 0.0 3.2 0.00 0.15 0.15 61 1012.7
20260507101546 21 80 0.0 9.7 0.00 0.15 0.15 65 1012.8
20260507100042 20 97 0.0 4.8 0.00 0.15 0.15 66 1012.7
20260507094540 20 10 0.0 12.9 0.00 0.15 0.15 66 1012.7
20260507093041 20 333 1.6 9.7 0.00 0.15 0.15 72 1012.6
20260507091542 20 75 1.6 9.7 0.00 0.15 0.15 72 1012.5
20260507090037 21 34 0.0 6.4 0.00 0.15 0.15 65 1012.4
20260507084532 22 11 0.0 3.2 0.00 0.15 0.15 65 1012.4
20260507083032 22 82 0.0 6.4 0.00 0.15 0.15 61 1012.3
20260507081523 21 140 0.0 0.0 0.00 0.15 0.15 65 1012.0
20260507080023 20 126 0.0 0.0 0.00 0.15 0.15 69 1012.0
20260507074516 19 117 0.0 1.6 0.00 0.15 0.15 71 1012.1
20260507073014 19 221 0.0 3.2 0.00 0.15 0.15 72 1012.0
20260507071509 18 236 0.0 0.0 0.00 0.15 0.15 75 1012.2
20260507070010 17 226 0.0 0.0 0.00 0.15 0.15 81 1012.2
20260507064504 17 254 0.0 0.0 0.00 0.15 0.15 85 1012.0
20260507063005 16 193 0.0 0.0 0.00 0.15 0.15 88 1011.9
20260507061600 16 211 0.0 3.2 0.00 0.15 0.15 89 1012.1
20260507060058 15 202 0.0 0.0 0.00 0.15 0.15 90 1012.0
20260507054555 15 217 0.0 0.0 0.00 0.15 0.15 91 1012.0
20260507053052 15 174 0.0 0.0 0.00 0.15 0.15 91 1011.8
20260507051520 15 213 0.0 1.6 0.00 0.15 0.15 92 1011.5
20260507050020 15 210 0.0 0.0 0.00 0.15 0.15 92 1011.4
20260507044544 15 208 0.0 0.0 0.00 0.20 0.15 92 1011.1
20260507043043 15 209 0.0 0.0 0.00 0.20 0.15 92 1011.0
20260507041512 15 210 0.0 0.0 0.00 0.20 0.15 92 1011.1
20260507040011 15 211 0.0 0.0 0.00 0.20 0.15 91 1010.8
20260507034505 15 211 0.0 0.0 0.00 0.20 0.15 91 1010.8
20260507033005 15 212 0.0 0.0 0.00 0.20 0.15 91 1010.9
20260507031504 15 212 0.0 0.0 0.00 0.20 0.15 91 1010.9
20260507030002 15 212 0.0 0.0 0.00 0.20 0.15 90 1010.7
20260507024608 16 212 0.0 0.0 0.03 0.20 0.15 90 1010.8
20260507023057 16 212 0.0 0.0 0.05 0.20 0.15 89 1010.7
20260507021559 16 212 0.0 0.0 0.10 0.20 0.15 89 1010.5
20260507020109 16 212 0.0 0.0 0.15 0.20 0.15 88 1010.7
20260507014553 16 212 0.0 0.0 0.13 0.18 0.13 86 1010.8
20260507013054 17 212 0.0 0.0 0.10 0.15 0.10 85 1010.6
20260507011545 17 211 0.0 0.0 0.05 0.10 0.05 82 1010.7
20260507010045 17 162 0.0 1.6 0.00 0.05 0.00 80 1010.6
20260507004548 17 187 0.0 1.6 0.00 0.08 0.00 78 1010.5
20260507003044 18 216 0.0 0.0 0.00 0.08 0.00 77 1010.5
20260507001544 18 200 0.0 1.6 0.00 0.08 0.00 77 1010.4
20260507000035 18 222 0.0 3.2 0.00 0.08 0.00 76 1010.7
20260506234534 18 233 0.0 4.8 0.00 0.23 0.00 75 1010.8
20260506233029 18 191 0.0 1.6 0.00 0.23 0.00 74 1010.8
20260506231528 18 179 0.0 0.0 0.00 0.23 0.00 74 1010.8
20260506230027 18 198 0.0 0.0 0.00 0.23 0.00 73 1010.8
20260506224559 18 196 0.0 0.0 0.00 0.46 0.00 73 1010.8
20260506223055 18 242 0.0 0.0 0.00 0.46 0.00 71 1010.9
20260506221551 18 242 0.0 0.0 0.00 0.46 0.00 71 1011.0
20260506220051 18 237 0.0 0.0 0.00 0.46 0.00 71 1010.9
20260506214553 18 297 0.0 0.0 0.00 0.76 0.46 71 1011.0
20260506213108 18 199 0.0 3.2 0.00 0.76 0.46 70 1010.9
20260506211518 19 315 0.0 1.6 0.00 0.76 0.46 70 1010.8
20260506210021 19 232 0.0 14.5 0.00 0.76 0.46 69 1010.8
20260506204515 19 87 0.0 14.5 0.00 1.04 0.46 70 1010.7
20260506203018 19 198 0.0 6.4 0.00 1.04 0.46 70 1010.5
20260506201514 19 249 0.0 1.6 0.00 1.04 0.46 70 1010.4
20260506200014 19 170 0.0 0.0 0.00 1.35 0.46 71 1010.4
20260506194513 19 252 0.0 0.0 0.00 1.35 0.46 71 1010.3
20260506193009 19 202 0.0 9.7 0.00 1.35 0.46 70 1010.0
20260506191509 20 24 0.0 9.7 0.00 1.35 0.46 70 1009.8
20260506190013 20 22 0.0 12.9 0.00 1.68 0.46 69 1009.6
20260506184510 20 24 0.0 8.0 0.00 1.68 0.46 69 1009.2
20260506183051 20 23 0.0 4.8 0.00 1.68 0.46 68 1009.1
20260506181602 20 18 0.0 12.9 0.00 1.68 0.46 67 1009.0
20260506180036 20 24 0.0 12.9 0.00 1.68 0.46 66 1008.8
20260506174534 21 14 0.0 4.8 0.00 2.06 0.46 65 1008.7
20260506173048 21 30 0.0 14.5 0.00 2.06 0.46 64 1008.5
20260506171533 21 27 0.0 6.4 0.00 2.06 0.46 64 1008.4
20260506170029 21 20 0.0 1.6 0.00 2.06 0.46 63 1008.5
20260506164536 22 24 0.0 6.4 0.00 2.08 0.46 62 1008.6
20260506163029 22 74 0.0 6.4 0.00 2.08 0.46 60 1008.4
20260506161529 22 243 0.0 9.7 0.00 2.08 0.46 59 1008.5
20260506160026 23 217 0.0 4.8 0.00 2.08 0.46 55 1008.7
20260506154526 23 118 0.0 8.0 0.00 2.08 0.46 56 1008.8
20260506153025 23 233 0.0 12.9 0.00 2.08 0.46 57 1008.6
20260506151525 24 189 0.0 3.2 0.00 2.08 0.46 55 1008.6
20260506150023 24 179 0.0 8.0 0.00 2.08 0.46 54 1008.4
20260506144523 24 217 0.0 14.5 0.00 2.08 0.46 53 1008.2
20260506143022 24 240 0.0 11.3 0.00 2.08 0.46 54 1008.6
20260506141517 24 117 0.0 14.5 0.00 2.08 0.46 55 1008.6
20260506140017 23 211 0.0 11.3 0.00 2.08 0.46 56 1008.9
20260506134513 24 211 0.0 11.3 0.00 2.08 0.46 55 1009.1
20260506133012 24 217 0.0 3.2 0.00 2.08 0.46 54 1009.3
20260506131508 23 209 0.0 1.6 0.00 2.08 0.46 55 1009.6
20260506130037 23 228 0.0 1.6 0.00 2.08 0.46 60 1009.6
20260506124536 23 221 0.0 1.6 0.00 2.08 0.46 61 1009.7
20260506123033 22 197 0.0 1.6 0.00 2.08 0.46 62 1009.6
20260506121533 22 130 0.0 1.6 0.00 2.08 0.46 63 1009.5
20260506120037 22 70 0.0 0.0 0.00 2.08 0.46 63 1009.6
20260506114531 22 184 0.0 1.6 0.00 2.08 0.46 63 1009.9